Theta_e
354 355 355 356 356 356 356 356 356 356 355 355 354 352 350 351 352 352 351 350 351 351 351 352 351 353 348 348 346 347 346 346 346 345 345 348 355 354 352 352 351 350 349
355 355 355 355 355 355 355 355 355 355 355 355 355 355 355 352 351 352 352 351 352 352 351 353 352 351 352 350 349 348 346 347 349 348 347 347 353 352 354 354 351 347 347
344 344 352 354 356 356 356 356 356 356 356 355 355 356 356 355 354 354 354 352 351 351 352 352 348 349 351 350 349 348 349 350 350 350 348 349 350 352 352 355 354 353 353
345 344 342 344 343 343 343 346 351 354 357 357 358 357 356 356 355 355 356 354 352 352 352 350 350 348 347 352 351 350 348 350 349 350 349 349 350 351 352 351 351 352 351
344 344 342 341 341 340 340 341 341 340 343 347 352 354 358 357 357 356 355 355 354 354 353 352 351 350 348 351 351 350 350 351 350 351 350 348 350 350 352 351 351 350 350
341 343 344 342 341 342 340 340 340 340 341 342 344 351 353 357 358 355 354 354 354 354 354 354 353 351 350 349 350 349 349 351 351 350 348 349 349 351 350 351 352 352 353
339 341 343 343 342 343 343 342 342 342 341 341 342 344 349 353 356 357 354 353 352 354 354 354 354 352 353 353 351 350 348 349 349 350 352 351 350 351 351 354 352 354 354
337 339 341 342 343 343 344 344 343 344 344 344 344 344 345 350 353 356 356 353 353 353 353 354 353 353 353 353 353 353 349 350 350 349 350 351 351 351 353 353 355 355 353
334 336 336 337 341 342 343 344 345 344 343 344 345 349 350 350 352 354 356 354 353 354 354 354 353 354 354 352 352 352 352 352 351 350 351 351 352 351 352 353 354 353 350
332 333 333 334 338 341 342 343 344 345 344 343 343 347 350 351 354 354 356 355 353 353 354 355 354 354 353 353 352 352 352 351 351 352 353 352 350 350 349 351 351 353 351
327 330 330 332 334 338 341 342 344 345 345 345 344 343 345 351 355 355 355 355 355 353 352 352 353 354 352 353 352 352 352 351 351 351 352 352 351 353 351 351 352 352 350
324 326 329 330 332 334 338 342 341 343 345 344 343 344 342 345 351 353 355 355 355 355 353 350 352 351 351 350 352 351 351 352 351 351 352 352 351 351 351 351 352 352 351
320 323 326 328 330 333 338 340 338 338 341 343 341 339 339 341 343 348 352 354 353 351 352 352 352 351 351 350 350 350 349 350 352 353 352 351 350 351 351 352 352 348 346
320 322 325 327 329 332 337 334 333 337 337 339 340 341 341 339 340 341 338 338 342 339 350 351 349 348 346 347 346 348 349 351 351 351 349 347 346 353 353 351 349 345 345
321 323 325 327 328 331 335 332 333 333 335 336 338 340 339 339 341 339 339 336 337 338 341 340 339 342 345 346 347 348 349 348 348 347 345 345 347 348 347 346 346 346 344
320 323 326 326 330 332 334 332 331 331 329 332 335 336 335 335 337 333 336 333 334 335 336 339 338 338 340 340 341 343 345 345 345 344 345 347 346 345 345 346 344 343 342
316 320 325 328 329 332 333 333 332 331 332 330 331 331 332 332 336 331 333 333 333 333 334 336 339 340 340 340 340 341 342 344 343 344 343 343 343 343 343 345 343 340 339
317 319 323 328 329 331 331 331 332 331 332 330 333 333 332 330 333 336 335 335 331 327 334 337 338 338 341 342 343 342 343 342 343 343 342 343 343 343 344 342 340 339 338
317 318 321 323 328 331 331 331 330 330 331 330 331 332 332 330 329 332 334 336 335 337 333 336 336 337 339 342 342 342 341 340 341 342 342 341 342 343 342 341 340 338 337
319 319 320 324 327 329 332 331 331 330 330 330 330 331 333 330 333 334 331 331 335 334 334 334 334 338 341 341 341 342 342 341 341 340 341 340 341 341 340 340 339 339 337
317 320 322 324 324 327 329 330 331 332 331 332 331 330 331 331 331 333 333 333 334 335 336 337 337 338 339 340 341 339 340 341 341 342 342 341 341 340 339 339 339 338 338
312 313 313 314 315 317 319 322 324 327 329 330 332 332 328 329 330 330 331 332 333 334 333 334 335 336 338 338 338 337 336 335 336 337 338 338 339 339 338 338 338 338 338
310 310 311 310 310 312 314 314 314 315 318 322 323 325 327 329 331 331 332 332 331 331 331 333 333 333 333 334 335 335 335 334 334 334 336 337 336 336 335 336 338 338 338
311 311 311 310 309 309 308 308 309 309 310 310 310 311 314 317 321 322 323 325 328 330 332 333 332 332 333 333 333 333 334 334 334 335 336 336 336 336 336 336 336 338 338
309 309 309 309 309 309 308 307 306 306 306 306 306 306 306 306 307 310 313 315 318 321 323 325 324 327 327 330 332 333 333 333 334 335 336 336 335 335 336 336 336 337 338
310 309 309 308 308 308 307 307 307 306 305 304 304 303 303 303 304 304 305 305 308 311 312 314 313 315 318 321 321 322 325 328 330 331 331 333 334 334 333 334 334 334 336
Wind_Speed
12 15 17 19 21 22 22 23 23 20 20 22 22 24 26 23 21 22 24 23 22 22 22 20 20 18 17 15 15 16 16 16 14 16 15 10 8 9 10 10 11 12 12
6 11 17 18 20 21 22 22 21 22 20 21 21 22 22 24 24 24 25 25 25 26 26 23 21 19 19 18 17 17 18 14 15 13 14 17 10 12 12 12 13 12 11
12 11 10 13 13 15 16 16 18 19 20 19 21 23 23 24 25 25 26 26 27 27 29 27 29 23 21 21 21 21 18 17 17 17 18 14 14 12 12 12 12 12 12
10 11 11 10 11 14 16 13 15 15 18 19 20 23 24 25 26 26 26 27 27 28 30 29 26 27 28 22 22 21 20 16 17 17 19 16 17 16 14 14 13 13 13
9 8 12 17 18 16 15 17 20 20 22 22 19 21 23 25 28 29 29 28 28 29 28 26 25 24 27 26 24 23 20 19 18 17 19 19 18 14 14 16 15 13 12
12 11 10 10 10 11 12 14 18 22 21 21 22 24 23 25 28 31 31 28 29 29 28 28 26 24 27 30 31 28 25 24 21 18 20 17 16 15 17 17 14 12 9
14 13 11 10 11 12 12 13 16 18 18 22 23 23 27 25 29 33 36 34 28 28 28 28 26 25 26 25 31 32 31 29 26 20 20 20 18 16 15 14 15 13 13
15 13 11 12 13 13 13 15 15 15 16 19 23 25 27 29 31 33 37 35 32 29 28 28 28 25 23 24 25 24 28 28 29 28 26 26 23 21 18 17 14 12 13
17 15 14 13 14 14 14 16 15 16 17 17 19 23 27 30 32 35 34 32 32 32 29 28 28 27 24 26 24 24 25 25 25 27 28 26 26 27 20 15 16 13 16
19 17 18 16 15 16 15 16 17 17 18 17 19 20 24 29 31 34 33 31 32 32 30 27 28 28 25 26 26 25 24 24 23 22 22 26 29 27 27 24 21 19 20
23 22 23 21 18 18 17 15 16 17 18 17 19 22 23 25 28 33 32 32 34 31 31 28 26 28 32 27 30 26 26 22 23 24 22 21 22 20 21 22 23 25 24
25 25 24 23 22 19 19 17 16 17 17 17 16 19 20 21 21 28 30 33 34 31 29 30 22 25 26 33 30 28 26 23 22 21 19 21 21 22 23 24 22 19 19
24 26 26 24 23 21 19 17 16 14 17 16 16 14 15 15 16 20 28 31 30 39 30 26 23 20 21 22 27 29 28 22 21 18 21 21 21 20 15 9 12 16 17
23 24 24 24 23 21 18 21 15 12 13 14 14 16 9 12 14 10 13 11 18 26 22 25 18 15 14 15 14 19 21 20 22 20 19 19 17 14 13 15 16 13 14
21 21 22 21 22 20 19 20 18 14 13 14 15 12 12 7 11 15 15 12 13 17 20 18 16 14 15 14 14 15 16 18 21 18 19 19 18 18 15 14 15 17 19
20 18 19 20 18 17 16 18 19 17 17 17 16 13 15 10 10 9 15 17 20 25 14 13 18 16 13 15 18 19 18 19 18 16 16 17 16 16 16 17 19 19 18
20 19 19 19 18 19 13 13 18 15 13 14 17 15 13 11 9 10 11 11 26 32 27 21 13 16 15 9 18 21 21 20 16 17 15 16 18 18 18 19 18 16 16
17 19 17 17 18 17 17 17 18 17 16 16 10 13 13 12 12 15 18 19 5 12 19 23 24 18 6 9 15 16 15 14 14 14 16 17 17 17 17 16 17 17 18
15 15 14 16 17 18 17 16 19 19 19 17 11 10 10 8 11 13 13 14 9 9 5 7 9 12 12 12 15 14 13 13 12 12 14 14 15 16 16 17 18 18 18
11 12 14 14 16 18 16 16 17 19 16 17 17 11 5 3 6 4 5 7 10 8 7 7 9 11 8 14 14 13 12 10 11 14 14 15 16 16 18 18 20 20 20
16 15 15 14 15 16 16 14 16 17 19 17 16 11 3 7 13 4 3 3 7 9 13 11 9 12 13 13 15 16 17 16 18 17 17 18 16 17 18 19 20 21 21
19 19 18 19 18 17 17 16 16 16 19 22 15 11 8 7 10 8 5 6 5 8 7 9 11 13 16 18 17 15 14 15 15 16 17 17 17 19 19 19 20 22 25
20 18 18 20 20 18 17 17 17 17 16 17 18 20 22 19 20 20 16 15 11 9 7 8 10 11 13 14 15 15 15 16 16 16 16 17 18 20 21 18 22 23 24
17 17 18 18 20 18 18 18 17 18 18 18 18 18 18 17 16 16 15 13 11 11 11 10 10 12 13 13 15 16 15 16 17 17 17 18 18 19 20 22 22 25 25
17 18 18 18 18 18 17 18 18 18 18 19 20 20 20 18 18 15 14 13 12 12 11 13 11 11 11 10 10 14 15 12 15 16 13 17 19 20 20 20 22 22 24
15 16 16 17 18 18 18 19 19 18 19 20 20 21 21 19 22 22 21 18 14 11 11 10 12 15 15 14 14 19 21 20 18 18 18 18 21 22 22 21 22 22 23
Wind_Direction
232 230 230 227 227 230 235 242 243 243 240 246 254 242 239 242 244 244 245 246 236 237 238 246 236 234 246 250 244 252 252 250 249 255 262 259 258 264 264 268 267 267 264
296 249 244 242 240 235 226 230 237 241 236 244 248 251 246 241 240 237 237 242 237 234 233 231 232 236 235 240 248 245 251 260 265 266 266 267 242 253 258 262 266 266 266
314 324 317 264 248 255 257 255 251 244 242 239 243 245 247 242 238 240 236 236 233 234 234 225 231 226 232 236 236 247 240 242 246 254 267 257 259 258 253 253 258 265 263
291 274 281 292 312 309 304 303 292 273 261 249 245 246 244 245 239 235 236 234 233 236 234 232 239 230 231 227 231 235 243 247 249 258 262 263 259 251 253 264 262 254 259
316 275 253 251 273 278 277 276 272 269 272 271 262 257 252 248 244 238 234 236 234 235 238 237 235 231 222 225 228 225 229 226 237 238 252 252 248 242 245 257 258 268 278
307 302 285 269 269 272 279 280 266 266 264 261 259 259 253 249 251 246 236 234 237 238 236 237 234 232 227 227 228 227 229 228 232 239 255 253 267 258 253 267 278 295 289
304 299 296 290 284 282 282 276 269 270 268 265 263 258 257 251 249 249 242 231 235 239 242 239 234 231 227 228 232 232 231 229 231 234 246 264 270 257 265 265 260 259 261
304 299 297 293 285 283 279 272 277 281 279 270 264 263 261 256 253 248 246 236 234 233 235 239 234 233 224 220 222 222 229 234 237 235 237 242 250 256 257 258 261 262 268
292 296 303 305 295 288 284 282 277 283 289 287 273 266 263 260 254 251 247 236 235 233 230 235 234 233 228 220 220 220 225 231 233 235 235 239 243 249 248 250 247 252 267
294 295 298 299 296 289 286 286 281 278 277 276 288 279 271 265 259 252 247 234 232 232 230 231 233 237 233 222 218 223 226 231 234 236 235 245 249 249 248 241 247 249 259
295 292 293 293 292 286 285 286 283 280 284 287 289 284 280 277 259 250 247 238 232 227 231 225 231 230 228 227 224 227 231 237 241 243 242 246 250 247 239 241 237 246 259
296 289 284 286 287 286 283 284 278 277 278 286 292 290 284 280 276 255 246 241 235 243 224 225 223 226 229 229 228 230 233 236 244 247 249 247 250 254 245 236 237 238 254
294 287 283 281 280 279 276 275 278 278 281 285 294 290 295 291 287 276 249 239 242 235 230 222 218 220 214 224 233 234 238 238 240 241 247 246 244 253 254 243 213 229 241
285 288 282 277 275 273 273 269 269 266 276 286 281 288 310 314 286 261 259 256 243 226 211 205 207 204 208 214 221 227 231 233 227 230 240 248 250 243 229 227 235 230 235
292 290 282 272 269 268 266 262 277 272 274 283 278 284 298 339 311 274 246 223 204 209 192 178 169 185 194 205 219 220 219 224 232 232 240 245 239 241 236 231 233 235 232
312 292 296 298 286 271 272 267 267 267 274 280 272 275 291 323 309 285 236 238 210 182 217 178 178 185 207 228 231 230 223 224 231 231 228 232 229 228 224 222 225 228 230
310 307 300 294 291 292 271 270 271 259 251 273 271 274 287 287 272 250 256 252 231 218 210 218 201 201 195 218 240 235 231 222 217 221 225 224 228 226 228 227 222 231 237
305 307 303 305 304 295 289 275 263 264 266 263 250 263 282 276 264 246 252 269 268 204 236 216 213 218 245 230 245 240 235 230 219 221 226 228 228 230 223 224 232 229 232
302 304 307 310 307 307 293 283 282 285 279 276 259 248 255 282 259 257 232 222 252 262 266 249 203 214 214 229 236 233 227 220 221 223 230 238 236 238 242 244 243 244 240
324 316 317 313 316 315 312 306 290 282 269 270 278 261 205 289 244 228 235 204 222 259 264 249 239 247 228 228 225 225 221 221 226 228 231 235 237 240 246 247 246 248 232
352 346 350 8 359 343 343 338 331 316 308 314 306 318 354 287 289 271 241 239 226 229 238 255 276 258 252 251 234 222 219 217 218 227 230 235 241 243 245 251 256 255 249
13 15 18 15 9 6 6 5 360 351 353 354 331 339 342 283 277 278 279 262 250 231 237 239 237 241 235 234 235 240 239 238 239 238 238 242 245 244 251 259 259 253 252
19 18 18 20 15 15 15 13 11 10 5 1 0 6 13 7 4 3 354 344 333 316 289 268 264 258 241 238 242 244 248 252 252 248 250 249 246 252 260 256 255 253 248
25 27 26 24 23 24 21 19 15 14 16 12 11 11 10 5 360 355 352 343 334 324 319 317 292 283 283 275 269 261 259 259 257 257 251 257 256 254 254 260 256 253 249
26 28 32 31 28 26 25 27 25 25 22 18 15 14 11 11 12 7 1 359 356 353 342 346 353 338 344 345 319 279 272 264 248 243 257 261 258 261 260 259 263 261 253
29 29 28 30 30 29 30 32 32 29 27 27 27 27 24 17 20 15 9 8 2 359 357 353 343 342 332 324 307 288 284 281 275 268 259 254 256 255 258 258 260 260 258